Tuscaloosa, AL

9:09 PM CST on November 23, 2017 (GMT -0600)
Tuscaloosa Municipal

Weather History for KTCL - March, 2013

Change the Weather History Date:

Sunday, March 24, 2013

  Actual Average Record
Temperature  
Mean Temperature 53 °F 58 °F  
Max Temperature 63 °F 71 °F 85 °F (2007)
Min Temperature 42 °F 45 °F 23 °F (1968)
Degree Days  
Heating Degree Days 12 8  
Month to date heating degree days 320 244  
Since 1 July heating degree days 2172 2334  
Growing Degree Days 4 (Base 50)    
Moisture  
Dew Point 46 °F    
Average Humidity 70    
Maximum Humidity 93    
Minimum Humidity 47    
Precipitation  
Precipitation 0.39 in 0.14 in 1.93 in (1973)
Month to date precipitation 4.01 3.53  
Year to date precipitation 14.78 14.20  
Sea Level Pressure  
Sea Level Pressure 29.68 in    
Wind  
Wind Speed 12 mph (WNW)    
Max Wind Speed 31 mph    
Max Gust Speed 39 mph    
Visibility 8 miles    
Events Rain , Thunderstorm    
T = Trace of Precipitation, MM = Missing Value Source: NWS Daily Summary

Daily Weather History Graph

Daily Weather History Graph

Search for Another Location

Airport or City:

Trip Planner

Search our weather history database for the weather conditions in past years. The results will help you decide how hot, cold, wet, or windy it might be!

Date:

Astronomy

Mar. 24, 2013 Rise Set
Actual Time 6:48 AM CDT 7:05 PM CDT
Civil Twilight 6:23 AM CDT 7:29 PM CDT
Nautical Twilight 5:54 AM CDT 7:58 PM CDT
Astronomical Twilight 5:25 AM CDT 8:28 PM CDT
Moon 4:39 PM CDT 4:51 AM CDT
Length of Visible Light 13h 06m
Length of Day
12h 16m
Waxing Gibbous, 92% of the Moon is Illuminated
Mar 24
Waxing Gibbous
Mar 27
Full
Apr 2
Last Quarter
Apr 10
New
Apr 18
First Quarter

Hourly Weather History & Observations

Time (CDT) Temp. Windchill Dew Point Humidity Pressure Visibility Wind Dir Wind Speed Gust Speed Precip Events Conditions
12:25 AM - - - N/A% 29.61 in 6.0 mi ENE 12.7 mph 18.4 mph 0.03 in Rain Light Rain
12:38 AM - - - N/A% 29.62 in 5.0 mi East 8.1 mph - 0.05 in Rain , Thunderstorm Rain
12:53 AM - - - N/A% 29.62 in 7.0 mi Variable 5.8 mph - 0.05 in Rain , Thunderstorm Light Rain
1:15 AM - - - N/A% 29.60 in 5.0 mi ENE 8.1 mph - 0.01 in Rain , Thunderstorm Light Rain
1:53 AM - - - N/A% 29.66 in 3.0 mi NNW 13.8 mph 20.7 mph 0.07 in Rain , Thunderstorm Thunderstorms and Rain
1:59 AM - - - N/A% 29.69 in 2.5 mi NW 10.4 mph 25.3 mph 0.04 in Rain , Thunderstorm Light Thunderstorms and Rain
2:01 AM - - - N/A% 29.69 in 1.8 mi NNW 11.5 mph 25.3 mph 0.10 in Rain , Thunderstorm Heavy Thunderstorms and Rain
2:19 AM - - - N/A% 29.68 in 3.0 mi NNW 17.3 mph 24.2 mph 0.25 in Rain , Thunderstorm Light Rain
2:29 AM - - - N/A% 29.68 in 8.0 mi NNW 12.7 mph - 0.25 in Rain , Thunderstorm Light Rain
2:53 AM - - - N/A% 29.65 in 6.0 mi North 11.5 mph - 0.32 in Rain , Thunderstorm Light Rain
3:10 AM - - - N/A% 29.63 in 9.0 mi NNE 15.0 mph - 0.00 in Rain Light Rain
3:31 AM - - - N/A% 29.58 in 10.0 mi ENE 13.8 mph - 0.00 in   Scattered Clouds
3:53 AM 55.9 °F - 52.0 °F 87% 29.59 in 10.0 mi NE 8.1 mph - 0.00 in   Mostly Cloudy
4:53 AM 55.0 °F - 52.0 °F 89% 29.56 in 10.0 mi East 5.8 mph - N/A   Clear
5:53 AM 54.0 °F - 51.1 °F 90% 29.60 in 10.0 mi Calm Calm - N/A   Scattered Clouds
6:53 AM 50.0 °F - 48.0 °F 93% 29.62 in 10.0 mi Calm Calm - N/A   Clear
7:53 AM 54.0 °F - 51.1 °F 90% 29.65 in 10.0 mi NW 6.9 mph - N/A   Scattered Clouds
8:53 AM 59.0 °F - 53.1 °F 81% 29.62 in 10.0 mi NNE 3.5 mph - N/A   Partly Cloudy
9:09 AM 59.0 °F - 51.8 °F 77% 29.63 in 10.0 mi Variable 3.5 mph - N/A   Mostly Cloudy
9:53 AM 59.0 °F - 52.0 °F 78% 29.66 in 10.0 mi WSW 5.8 mph - N/A   Overcast
10:03 AM 59.0 °F - 53.6 °F 82% 29.66 in 10.0 mi WSW 8.1 mph - N/A   Overcast
10:53 AM 60.1 °F - 54.0 °F 80% 29.65 in 10.0 mi WSW 6.9 mph - N/A   Overcast
11:53 AM 62.1 °F - 55.0 °F 78% 29.64 in 10.0 mi SW 9.2 mph - N/A   Overcast
12:53 PM 62.1 °F - 54.0 °F 75% 29.63 in 10.0 mi WSW 13.8 mph 21.9 mph N/A   Overcast
1:53 PM 59.0 °F - 55.0 °F 87% 29.63 in 2.5 mi WSW 15.0 mph 25.3 mph 0.00 in Rain Light Rain
2:01 PM 59.0 °F - 55.4 °F 88% 29.63 in 3.0 mi West 18.4 mph 25.3 mph 0.00 in Rain Light Rain
2:14 PM 57.2 °F - 55.4 °F 94% 29.64 in 3.0 mi West 20.7 mph 26.5 mph 0.00 in Rain Light Rain
2:41 PM 53.6 °F - 50.0 °F 88% 29.66 in 3.0 mi West 21.9 mph 33.4 mph 0.00 in Rain Light Rain
2:53 PM 53.1 °F - 50.0 °F 89% 29.67 in 3.0 mi West 19.6 mph 28.8 mph 0.00 in   Overcast
3:16 PM 55.4 °F - 48.2 °F 77% 29.66 in 10.0 mi West 12.7 mph 23.0 mph N/A   Overcast
3:53 PM 57.0 °F - 46.0 °F 67% 29.66 in 10.0 mi West 16.1 mph 23.0 mph N/A   Scattered Clouds
4:53 PM 57.9 °F - 37.9 °F 47% 29.68 in 10.0 mi West 23.0 mph 39.1 mph N/A   Clear
5:53 PM 53.1 °F - 35.1 °F 50% 29.74 in 10.0 mi West 19.6 mph 34.5 mph N/A   Mostly Cloudy
6:53 PM 48.0 °F - 32.0 °F 54% 29.81 in 10.0 mi West 16.1 mph 28.8 mph N/A   Overcast
7:53 PM 46.9 °F - 32.0 °F 56% 29.84 in 10.0 mi WNW 15.0 mph 29.9 mph N/A   Overcast
8:53 PM 46.0 °F 40.2 °F 28.0 °F 50% 29.87 in 10.0 mi WNW 12.7 mph 23.0 mph N/A   Overcast
9:53 PM 45.0 °F 38.9 °F 28.0 °F 52% 29.89 in 10.0 mi WNW 12.7 mph 23.0 mph N/A   Overcast
10:53 PM 45.0 °F 37.9 °F 28.9 °F 53% 29.90 in 10.0 mi WNW 16.1 mph 24.2 mph N/A   Overcast
11:53 PM 43.0 °F 35.7 °F 25.0 °F 49% 29.92 in 10.0 mi NW 15.0 mph 32.2 mph N/A   Overcast